{"data":{"norad_id":49262,"intl_designator":"2021-088C","name":"CS2","alt_names":[],"object_type":"PAYLOAD","status":"ACTIVE","operator":null,"country":"US","launch_date":"2021-09-27","launch_site_code":"AFWTR","launch_vehicle":null,"mission":null,"orbit_class":"UNKNOWN","rcs_meters":null,"size_class":null,"mass_kg":null,"dimensions":null,"purposes":[],"wikipedia_slug":null,"has_3d_model":false,"image_url":null,"decayed_at":null,"tle_current":{"epoch":"2026-09-20T10:14:42.902880Z","epoch_age_seconds":103562,"freshness":"FRESH","line1":"1 49262U 21088C   26263.42688545  .00011825  00000+0  30821-3 0  9996","line2":"2 49262  97.3720 329.5859 0010452 100.7302 259.5121 15.38953848275158","mean_motion":15.38953848,"eccentricity":0.0010452,"inclination_deg":97.372,"raan_deg":329.5859,"arg_perigee_deg":100.7302,"mean_anomaly_deg":259.5121,"bstar":0.00030821,"rev_number":27515,"period_min":93.570057469326,"perigee_km":442.06569657493,"apogee_km":456.33756524899,"semimajor_km":6827.338630912,"source":"CELESTRAK","updated_at":"2026-09-21T09:00:08.031764Z"}}}